Weather History for Hibbing, MN

Change the Weather History Date:

Thursday, March 8, 2012

  Actual Average Record
Temperature  
Mean Temperature 20 °F -  
Max Temperature 28 °F 30 °F 59 °F (1977)
Min Temperature 10 °F 8 °F -30 °F (1967)
Degree Days  
Heating Degree Days 45    
Moisture  
Dew Point 14 °F    
Average Humidity 72    
Maximum Humidity 88    
Minimum Humidity 56    
Precipitation  
Precipitation 0.00 in - - ()
Sea Level Pressure  
Sea Level Pressure 30.02 in    
Wind  
Wind Speed 13 mph (WNW)    
Max Wind Speed 36 mph    
Max Gust Speed 48 mph    
Visibility 6 miles    
Events Fog , Snow    
Averages and records for this station are not official NWS values.
T = Trace of Precipitation, MM = Missing Value Source: NWS Daily Summary

Daily Weather History Graph

Daily Weather History Graph

Search for Another Location

Airport:

Trip Planner

Search our weather history database for the weather conditions in past years. The results will help you decide how hot, cold, wet, or windy it might be!

Date:

Astronomy

Mar. 08, 2012 Rise Set
Actual Time 6:37 AM CST 6:07 PM CST
Civil Twilight 6:06 AM CST 6:38 PM CST
Nautical Twilight 5:31 AM CST 7:13 PM CST
Astronomical Twilight 4:55 AM CST 7:49 PM CST
Moon 7:03 PM CST (3/8) 6:16 AM CST (3/8)
Length of Visible Light 12h 31m
Length of Day
11h 30m
Full, 100% of the Moon is Illuminated
Mar 8
Full
Mar 14
Last Quarter
Mar 22
New
Mar 30
First Quarter
Apr 6
Full

Hourly Weather History & Observations

Time (CST) Temp. Windchill Dew Point Humidity Pressure Visibility Wind Dir Wind Speed Gust Speed Precip Events Conditions
12:53 AM 19.0 °F 5.6 °F 10.9 °F 71% 29.97 in 10.0 mi NW 13.8 mph - N/A   Partly Cloudy
1:53 AM 17.6 °F 3.7 °F 10.4 °F 73% 29.91 in 10.0 mi NW 13.8 mph - N/A   Scattered Clouds
2:53 AM 16.0 °F 7.4 °F 9.0 °F 74% 29.99 in 10.0 mi WNW 5.8 mph - N/A   Clear
3:53 AM 15.1 °F 5.2 °F 9.0 °F 77% 30.02 in 10.0 mi WNW 6.9 mph - N/A   Clear
4:53 AM 14.0 °F 3.9 °F 10.0 °F 84% 30.04 in 10.0 mi WNW 6.9 mph - N/A   Mostly Cloudy
5:53 AM 14.0 °F 5.1 °F 9.0 °F 80% 30.06 in 10.0 mi WNW 5.8 mph - N/A   Overcast
6:53 AM 14.0 °F 6.5 °F 9.0 °F 80% 30.06 in 10.0 mi WNW 4.6 mph - N/A   Mostly Cloudy
7:53 AM 15.1 °F 7.7 °F 10.0 °F 80% 30.08 in 10.0 mi WNW 4.6 mph - N/A   Partly Cloudy
8:53 AM 19.0 °F 9.0 °F 12.0 °F 74% 30.09 in 10.0 mi NW 8.1 mph - N/A   Overcast
9:53 AM 21.9 °F 13.4 °F 10.9 °F 63% 30.09 in 10.0 mi WNW 6.9 mph - N/A   Scattered Clouds
10:32 AM 24.8 °F 16.1 °F 12.2 °F 59% 30.01 in 10.0 mi WSW 8.1 mph - N/A   Mostly Cloudy
10:53 AM 25.0 °F 18.1 °F 14.0 °F 63% 30.06 in 10.0 mi West 5.8 mph - N/A   Overcast
11:26 AM 26.6 °F 15.7 °F 15.8 °F 64% 29.98 in 10.0 mi West 12.7 mph 21.9 mph N/A   Scattered Clouds
11:53 AM 27.0 °F 18.0 °F 15.1 °F 61% 30.05 in 10.0 mi WSW 9.2 mph 18.4 mph N/A   Partly Cloudy
12:53 PM 28.9 °F 18.6 °F 15.1 °F 56% 30.01 in 10.0 mi WSW 12.7 mph 18.4 mph N/A   Partly Cloudy
1:53 PM 28.9 °F 18.6 °F 16.0 °F 58% 29.99 in 10.0 mi WSW 12.7 mph 20.7 mph N/A   Overcast
2:27 PM 28.4 °F 18.5 °F 19.4 °F 69% 29.91 in 2.5 mi WSW 11.5 mph 21.9 mph 0.00 in Snow Light Snow
2:36 PM 26.6 °F 16.8 °F 21.2 °F 80% 29.91 in 1.0 mi WSW 10.4 mph 24.2 mph 0.00 in Snow Light Snow
2:50 PM 26.6 °F 16.2 °F 21.2 °F 80% 29.91 in 0.8 mi WSW 11.5 mph 21.9 mph 0.00 in Snow Light Snow
2:53 PM 27.0 °F 18.0 °F 23.0 °F 85% 29.99 in 0.5 mi WSW 9.2 mph 21.9 mph 0.00 in Fog , Snow Snow
3:20 PM 26.6 °F 15.7 °F 23.0 °F 86% 29.91 in 1.8 mi WSW 12.7 mph 25.3 mph 0.00 in Snow Light Snow
3:23 PM 26.6 °F 15.2 °F 21.2 °F 80% 29.91 in 2.0 mi West 13.8 mph 21.9 mph 0.00 in Snow Light Snow
3:34 PM 26.6 °F 14.7 °F 21.2 °F 80% 29.90 in 4.0 mi West 15.0 mph 20.7 mph 0.00 in Snow Light Snow
3:45 PM 26.6 °F 14.7 °F 21.2 °F 80% 29.91 in 0.5 mi West 15.0 mph 28.8 mph 0.00 in Snow Snow
3:49 PM 24.8 °F 11.5 °F 21.2 °F 86% 29.91 in 0.2 mi WNW 17.3 mph 28.8 mph 0.00 in Fog , Snow Heavy Snow
3:53 PM 25.0 °F 12.6 °F 21.9 °F 88% 29.99 in 0.2 mi WNW 15.0 mph 28.8 mph 0.00 in Fog , Snow Snow
3:58 PM 26.6 °F 15.7 °F 23.0 °F 86% 29.91 in 0.5 mi West 12.7 mph 21.9 mph 0.00 in Fog , Snow Light Snow
4:02 PM 26.6 °F 16.8 °F 23.0 °F 86% 29.91 in 1.0 mi West 10.4 mph 21.9 mph 0.00 in Snow Light Snow
4:08 PM 26.6 °F 14.7 °F 21.2 °F 80% 29.91 in 3.0 mi West 15.0 mph 21.9 mph 0.00 in Snow Light Snow
4:27 PM 26.6 °F 16.2 °F 19.4 °F 74% 29.92 in 7.0 mi West 11.5 mph 26.5 mph 0.00 in Snow Light Snow
4:42 PM 26.6 °F 12.0 °F 19.4 °F 74% 29.93 in 1.8 mi West 23.0 mph 31.1 mph 0.00 in Snow Light Snow
4:53 PM 25.0 °F 8.9 °F 18.0 °F 75% 30.02 in 1.5 mi WNW 26.5 mph 35.7 mph 0.00 in Snow Light Snow
4:57 PM 24.8 °F 10.7 °F 17.6 °F 74% 29.94 in 3.0 mi WNW 19.6 mph 35.7 mph 0.00 in Snow Light Snow
5:12 PM 24.8 °F 10.0 °F 17.6 °F 74% 29.95 in 5.0 mi WNW 21.9 mph 31.1 mph 0.00 in Snow Light Snow
5:34 PM 24.8 °F 8.1 °F 15.8 °F 69% 29.97 in 1.8 mi WNW 28.8 mph 36.8 mph 0.00 in Snow Light Snow
5:53 PM 21.9 °F 4.2 °F 16.0 °F 78% 30.09 in 0.5 mi WNW 28.8 mph 48.3 mph 0.00 in Snow Snow
6:04 PM 21.2 °F 3.5 °F 14.0 °F 74% 30.01 in 1.2 mi WNW 27.6 mph 43.7 mph 0.00 in Snow Blowing Snow
6:24 PM 21.2 °F 6.4 °F 12.2 °F 68% 30.03 in 3.0 mi WNW 18.4 mph 36.8 mph 0.00 in Snow Light Snow
6:42 PM 21.2 °F 2.2 °F 8.6 °F 58% 30.06 in 1.8 mi NW 33.4 mph 47.2 mph 0.00 in Snow Blowing Snow
6:51 PM 19.4 °F -0.8 °F 6.8 °F 58% 30.07 in 2.0 mi NW 35.7 mph 46.0 mph 0.00 in Snow Blowing Snow
6:53 PM 19.9 °F 1.5 °F 7.0 °F 57% 30.16 in 2.5 mi NW 28.8 mph 46.0 mph 0.00 in Snow Blowing Snow
7:02 PM 19.4 °F 1.4 °F 6.8 °F 58% 30.08 in 7.0 mi NW 26.5 mph 42.6 mph N/A   Clear
7:53 PM 18.0 °F -0.2 °F 5.0 °F 57% 30.22 in 8.0 mi NW 25.3 mph 39.1 mph N/A   Clear
8:53 PM 17.1 °F 0.1 °F 3.9 °F 56% 30.27 in 10.0 mi NW 20.7 mph 34.5 mph N/A   Clear
9:53 PM 15.1 °F -2.0 °F 3.0 °F 59% 30.31 in 10.0 mi NW 19.6 mph 28.8 mph N/A   Clear
10:53 PM 12.9 °F -5.7 °F 3.0 °F 65% 30.35 in 10.0 mi NW 21.9 mph 29.9 mph N/A   Clear
11:53 PM 10.9 °F -8.8 °F 1.9 °F 67% 30.39 in 10.0 mi NW 23.0 mph 27.6 mph N/A   Clear